Satellite: MET-3/5
Catalog number: 21655
Epoch time:      08267.57342534
Element set:     491
Inclination:      082.5492 deg
RA of node:       034.8560 deg
Eccentricity:    0.0014177
Arg of perigee:   122.9231 deg
Mean anomaly:     237.3255 deg
Mean motion:   13.17016341 rev/day
Decay rate:        5.1e-07 rev/day^2
Epoch rev:           82253
Checksum:              284

Satellite: MET-2/21
Catalog number: 22782
Epoch time:      08267.77382259
Element set:     257
Inclination:      082.5495 deg
RA of node:       033.3530 deg
Eccentricity:    0.0023077
Arg of perigee:   017.4590 deg
Mean anomaly:     342.7376 deg
Mean motion:   13.83632061 rev/day
Decay rate:       1.72e-06 rev/day^2
Epoch rev:           76076
Checksum:              312

Satellite: OKEAN-4
Catalog number: 23317
Epoch time:      08266.84917760
Element set:     701
Inclination:      082.5388 deg
RA of node:       223.9304 deg
Eccentricity:    0.0022417
Arg of perigee:   160.8572 deg
Mean anomaly:     199.3513 deg
Mean motion:   14.82635840 rev/day
Decay rate:       1.00e-06 rev/day^2
Epoch rev:           75275
Checksum:              303

Satellite: NOAA-14
Catalog number: 23455
Epoch time:      08267.42754587
Element set:     318
Inclination:      098.9374 deg
RA of node:       339.6869 deg
Eccentricity:    0.0008912
Arg of perigee:   221.9103 deg
Mean anomaly:     138.1417 deg
Mean motion:   14.13747193 rev/day
Decay rate:      -2.22e-06 rev/day^2
Epoch rev:           70823
Checksum:              325

Satellite: NOAA-15
Catalog number: 25338
Epoch time:      08267.04638586
Element set:     632
Inclination:      098.5639 deg
RA of node:       256.4574 deg
Eccentricity:    0.0011586
Arg of perigee:   113.9157 deg
Mean anomaly:     246.3227 deg
Mean motion:   14.24724703 rev/day
Decay rate:      -1.10e-06 rev/day^2
Epoch rev:           53873
Checksum:              321

Satellite: RESURS
Catalog number: 25394
Epoch time:      08267.53845307
Element set:      29
Inclination:      098.3769 deg
RA of node:       306.9710 deg
Eccentricity:    0.0000820
Arg of perigee:   309.2278 deg
Mean anomaly:     050.8834 deg
Mean motion:   14.24170777 rev/day
Decay rate:       -5.0e-08 rev/day^2
Epoch rev:           53044
Checksum:              302

Satellite: FENGYUN1
Catalog number: 25730
Epoch time:      08266.92820151
Element set:    0624
Inclination:      098.7304 deg
RA of node:       239.4351 deg
Eccentricity:    0.0019642
Arg of perigee:   252.8462 deg
Mean anomaly:     107.0558 deg
Mean motion:   14.07782662 rev/day
Decay rate:       3.34e-06 rev/day^2
Epoch rev:           48271
Checksum:              299

Satellite: OKEAN-0
Catalog number: 25860
Epoch time:      08266.49295634
Element set:    0480
Inclination:      097.7596 deg
RA of node:       252.7805 deg
Eccentricity:    0.0001204
Arg of perigee:   035.0520 deg
Mean anomaly:     325.0775 deg
Mean motion:   14.73536346 rev/day
Decay rate:        3.0e-08 rev/day^2
Epoch rev:           49372
Checksum:              302

Satellite: NOAA-16
Catalog number: 26536
Epoch time:      08267.03162978
Element set:     106
Inclination:      099.1658 deg
RA of node:       258.3932 deg
Eccentricity:    0.0009926
Arg of perigee:   314.5570 deg
Mean anomaly:     045.4808 deg
Mean motion:   14.12498025 rev/day
Decay rate:       2.61e-06 rev/day^2
Epoch rev:           41258
Checksum:              320

Satellite: NOAA-17
Catalog number: 27453
Epoch time:      08267.42339356
Element set:     104
Inclination:      098.5237 deg
RA of node:       329.1578 deg
Eccentricity:    0.0011966
Arg of perigee:   177.3107 deg
Mean anomaly:     182.8184 deg
Mean motion:   14.24004671 rev/day
Decay rate:       2.05e-06 rev/day^2
Epoch rev:           32478
Checksum:              312

Satellite: NOAA-18
Catalog number: 28654
Epoch time:      08267.46480652
Element set:     590
Inclination:      098.8737 deg
RA of node:       207.2107 deg
Eccentricity:    0.0015092
Arg of perigee:   038.7823 deg
Mean anomaly:     321.4425 deg
Mean motion:   14.11195840 rev/day
Decay rate:       4.23e-06 rev/day^2
Epoch rev:           17233
Checksum:              305

/EX
SB KEPS @ AMSAT  $ORB08267.M
Orbital Elements  08267.MISC

HR AMSAT ORBITAL ELEMENTS FOR MANNED AND MISCELLANEOUS SATELLITES
FROM WA5QGD FORT WORTH,TX September 23, 2008
Send Subscribe/unsubscribe to KEPS at 
http://www.amsat.org/mailman/listinfo/keps
BID: ORB08267.M
TO ALL RADIO AMATEURS BT

Satellite: HUBBLE
Catalog number: 20580
Epoch time:      08267.52461561
Element set:     226
Inclination:      028.4682 deg
RA of node:       041.8201 deg
Eccentricity:    0.0003460
Arg of perigee:   345.8625 deg
Mean anomaly:     014.1867 deg
Mean motion:   15.00409418 rev/day
Decay rate:       3.02e-06 rev/day^2
Epoch rev:           80976
Checksum:              273

Satellite: PO-34
Catalog number: 25520
Epoch time:      08266.94403745
Element set:    0087
Inclination:      028.4605 deg
RA of node:       244.2887 deg
Eccentricity:    0.0005369
Arg of perigee:   266.9197 deg
Mean anomaly:     093.0787 deg
Mean motion:   15.17231276 rev/day
Decay rate:       4.25e-06 rev/day^2
Epoch rev:           54802
Checksum:              326

